Tracking 19242 objects as of 15-Aug-2018
HD Live streaming from Space Station
objects crossing your sky now

LEMUR 2 LIU-POU-CHUN

Track LEMUR 2 LIU-POU-CHUN now!
10-day predictions
LEMUR 2 LIU-POU-CHUN is classified as:


NORAD ID: 43054
Int'l Code: 2017-071T
Perigee: 451.5 km
Apogee: 453.0 km
Inclination: 51.6 °
Period: 93.5 minutes
Semi major axis: 6823 km
RCS: Unknown
Launch date: November 12, 2017
Source: United States (US)
Launch site: WALLOPS ISLAND (WLPIS)
aabbcc
Your satellite tracking list
Your tracking list is empty




NASA's NSSDC Master Catalog

Two Line Element Set (TLE):
1 43054U 17071T   18227.21272654  .00003238  00000-0  88797-4 0  9990
2 43054  51.6393 112.4634 0001102  67.5734 292.5368 15.40332426 38682
Source of the keplerian elements: AFSPC